星链-35663(STARLINK-35663)

导读

STARLINK-35663是美国太空探索技术公司星链计划的一颗卫星,于2025年11月15日发射升空,归属美国所有。它属于星链星座组网卫星,主要用于为全球范围内用户提供高速低延迟的卫星互联网服务,补充全球偏远地区网络覆盖,推动星链全球互联网络建设完善。

Basic Information
目录编号:
66491
目录名称:
STARLINK-35663
国际标识:
2025-263G
轨道中心:
EARTH
卫星名称:
星链-35663
卫星全名:
星链-35663(STARLINK-35663)
卫星状态:
在轨 (已飞行293 天)
发射日期:
2025-11-15 UTC
国别 :
美国 (US)
星等 :
--
Orbit Information
数据来源 国际轨道数据
星历时间: 2026-09-03T20:20:49+0800
21小时前
查看轨道信息
半长轴: 6861.185km
偏心率: 0.0001547
轨道倾角: 43.000°
近地点辐角 251.514°
升交点赤经 66.539°
平近点角 108.554°
近地点: 481.986km
远地点: 484.11km
周期: 94.267分钟
每日圈数: 15.275806
Detailed Information
固有亮度:
5
最大亮度:
2.5
卫星平台:
Starlink V1.0
覆盖范围:
全球
运营商:
太空探索技术公司
运营商所在国:
美国
制造商(研发单位):
太空探索技术公司
制造商所在国:
美国
使用方式:
暂无
Satellite Introduction
Starlink 计划是 SpaceX 推出的全球卫星互联网项目,通过发射低轨道卫星,为全球尤其是偏远地区提供高速、低延迟的互联网服务。自 2019 年起,Starlink 已部署数千颗卫星,旨在缩小全球数字鸿沟,推动互联网普及。该项目还为军事、航空等行业提供通信支持,带来广泛经济效益。
2D Orbit Map
3D Orbit Map
Orbit Altitude Analysis Chart
Orbit Inclination Analysis Chart
Orbit Comprehensive Analysis Chart
View Comprehensive Chart
Conjunction Data List
Event ID Objects TCA Miss Dist (km) Collision Risk Probability Collision Risk Index (CRI) Action
CDM_260904-012405-848806-649121
2026-09-04T
01:24:52+0000
0.389 km
远距离
2.14964E-4 高风险 0.82
CDM_260904-100205-848806-649121
2026-09-04T
10:02:42+0000
0.482 km
远距离
1.335468E-4 高风险 0.78
CDM_260904-184905-925206-649121
2026-09-04T
18:49:25+0000
0.569 km
远距离
1.155505E-4 高风险 0.76
CDM_260903-173605-866906-649121
2026-09-03T
17:36:42+0000
0.824 km
远距离
3.276335E-5 中风险 0.65
CDM_260904-052205-866906-649121
2026-09-04T
05:22:51+0000
1.052 km
极远距离
1.429329E-5 中风险 0.58
CDM_260903-160205-866906-649121
2026-09-03T
16:02:33+0000
1.178 km
极远距离
9.635416E-6 低风险 0.55
CDM_260904-065705-866906-649121
2026-09-04T
06:57:01+0000
1.709 km
极远距离
2.880073E-6 低风险 0.44
CDM_260904-171505-925206-649121
2026-09-04T
17:15:15+0000
1.894 km
极远距离
2.528872E-6 低风险 0.43
CDM_260903-235005-848806-649121
2026-09-03T
23:50:42+0000
2.226 km
极远距离
1.30874E-6 低风险 0.37
CDM_260904-082805-848806-649121
2026-09-04T
08:28:33+0000
2.622 km
极远距离
9.774501E-7 极低风险 0.35